Location: Unspecified
(0.0000°N, 0.0000°E)
Time: 14:45:53
(UTC+00:00)

N. Korean satellite - Pass Details

Date: 12 April 2021
Orbit: 452 x 499 km, 97.2° (Epoch: 15 April)

Event Time Altitude Azimuth Distance (km) Brightness Sun altitude
Rises 04:47:02 0° 18° (NNE) 2,521 10.6 -18.2°
Reaches altitude 10° 04:49:08 10° 23° (NNE) 1,638 9.7 -17.7°
Maximum altitude 04:52:34 53° 101° (E) 582 7.3 -16.9°
Drops below altitude 10° 04:55:58 10° 179° (S) 1,620 9.1 -16.0°
Sets 04:58:02 0° 183° (S) 2,491 10.0 -15.5°
